TimeCDT,TemperatureF,Dew PointF,Humidity,Sea Level PressureIn,VisibilityMPH,Wind Direction,Wind SpeedMPH,Gust SpeedMPH,PrecipitationIn,Events,Conditions,WindDirDegrees,DateUTC
12:15 AM,23.2,11.8,62,30.05,10.0,West,13.8,-,N/A,,Overcast,280,2013-03-20 05:15:00
12:35 AM,22.5,10.9,61,30.04,10.0,West,17.3,23.0,N/A,,Scattered Clouds,280,2013-03-20 05:35:00
12:55 AM,21.6,10.4,62,30.04,10.0,West,17.3,23.0,N/A,,Clear,280,2013-03-20 05:55:00
1:15 AM,20.8,10.0,63,30.05,10.0,WNW,15.0,-,N/A,,Clear,290,2013-03-20 06:15:00
1:35 AM,20.1,10.0,65,30.04,10.0,WNW,16.1,26.5,N/A,,Clear,300,2013-03-20 06:35:00
1:55 AM,19.2,10.8,70,30.05,10.0,NW,11.5,18.4,N/A,,Clear,310,2013-03-20 06:55:00
2:15 AM,18.5,10.8,72,30.05,10.0,WNW,13.8,-,N/A,,Clear,300,2013-03-20 07:15:00
2:35 AM,18.1,8.1,65,30.04,10.0,WNW,18.4,25.3,N/A,,Clear,300,2013-03-20 07:35:00
2:55 AM,17.4,5.9,61,30.05,10.0,NW,16.1,27.6,N/A,,Clear,310,2013-03-20 07:55:00
3:15 AM,16.3,5.2,62,30.05,10.0,WNW,17.3,25.3,N/A,,Clear,300,2013-03-20 08:15:00
3:35 AM,15.3,5.0,64,30.05,10.0,WNW,17.3,28.8,N/A,,Clear,290,2013-03-20 08:35:00
3:55 AM,14.7,4.8,65,30.06,10.0,WNW,16.1,27.6,N/A,,Clear,290,2013-03-20 08:55:00
4:15 AM,14.0,5.0,67,30.05,10.0,WNW,21.9,27.6,N/A,,Clear,290,2013-03-20 09:15:00
4:35 AM,13.5,4.5,67,30.06,10.0,WNW,17.3,25.3,N/A,,Clear,290,2013-03-20 09:35:00
4:55 AM,12.9,4.1,68,30.06,10.0,WNW,18.4,27.6,N/A,,Clear,300,2013-03-20 09:55:00
5:15 AM,12.6,4.8,71,30.06,10.0,WNW,18.4,23.0,N/A,,Clear,290,2013-03-20 10:15:00
5:35 AM,12.0,3.2,68,30.07,10.0,WNW,19.6,27.6,N/A,,Clear,290,2013-03-20 10:35:00
5:55 AM,11.7,2.7,67,30.07,10.0,WNW,19.6,25.3,N/A,,Clear,290,2013-03-20 10:55:00
6:15 AM,11.3,2.5,68,30.07,10.0,WNW,19.6,25.3,N/A,,Clear,290,2013-03-20 11:15:00
6:35 AM,10.9,2.1,68,30.08,10.0,WNW,21.9,26.5,N/A,,Clear,300,2013-03-20 11:35:00
6:55 AM,10.4,2.1,69,30.08,10.0,WNW,21.9,26.5,N/A,,Clear,290,2013-03-20 11:55:00
7:15 AM,10.2,1.9,69,30.09,10.0,WNW,18.4,25.3,N/A,,Clear,290,2013-03-20 12:15:00
7:35 AM,10.2,1.6,68,30.09,10.0,WNW,20.7,25.3,N/A,,Clear,290,2013-03-20 12:35:00
7:55 AM,10.4,1.4,67,30.09,10.0,WNW,21.9,27.6,N/A,,Clear,290,2013-03-20 12:55:00
8:15 AM,11.1,1.4,65,30.10,10.0,WNW,19.6,29.9,N/A,,Clear,290,2013-03-20 13:15:00
8:35 AM,11.5,1.0,63,30.09,10.0,West,25.3,29.9,N/A,,Clear,280,2013-03-20 13:35:00
8:55 AM,12.2,1.4,62,30.09,10.0,WNW,23.0,29.9,N/A,,Clear,290,2013-03-20 13:55:00
9:15 AM,12.4,1.0,61,30.09,10.0,WNW,23.0,31.1,N/A,,Clear,290,2013-03-20 14:15:00
9:35 AM,13.1,1.8,61,30.08,10.0,WNW,23.0,32.2,N/A,,Clear,290,2013-03-20 14:35:00
9:55 AM,13.6,1.6,59,30.08,10.0,WNW,20.7,27.6,N/A,,Clear,300,2013-03-20 14:55:00
10:15 AM,14.5,2.3,58,30.09,10.0,West,21.9,26.5,N/A,,Clear,280,2013-03-20 15:15:00
10:35 AM,14.7,2.5,58,30.08,10.0,West,23.0,27.6,N/A,,Clear,280,2013-03-20 15:35:00
10:55 AM,15.4,2.8,58,30.08,10.0,WNW,24.2,31.1,N/A,,Clear,290,2013-03-20 15:55:00
11:15 AM,16.0,3.2,57,30.08,10.0,WNW,24.2,31.1,N/A,,Clear,290,2013-03-20 16:15:00
11:35 AM,16.9,4.1,57,30.08,10.0,WNW,21.9,29.9,N/A,,Scattered Clouds,290,2013-03-20 16:35:00
11:55 AM,17.6,4.6,57,30.08,10.0,West,21.9,27.6,N/A,,Clear,280,2013-03-20 16:55:00
12:15 PM,17.6,4.3,56,30.08,10.0,WNW,21.9,31.1,N/A,,Clear,300,2013-03-20 17:15:00
12:35 PM,18.7,5.4,56,30.08,10.0,WNW,21.9,29.9,N/A,,Scattered Clouds,290,2013-03-20 17:35:00
12:55 PM,19.2,5.7,56,30.07,10.0,WNW,20.7,29.9,N/A,,Scattered Clouds,290,2013-03-20 17:55:00
1:15 PM,20.1,6.6,56,30.06,10.0,West,25.3,31.1,N/A,,Mostly Cloudy,280,2013-03-20 18:15:00
1:35 PM,20.5,7.0,56,30.06,10.0,WNW,19.6,29.9,N/A,,Mostly Cloudy,290,2013-03-20 18:35:00
1:55 PM,19.9,5.7,54,30.05,10.0,WNW,21.9,-,N/A,,Mostly Cloudy,290,2013-03-20 18:55:00
2:15 PM,20.7,5.5,52,30.04,10.0,WNW,21.9,-,N/A,,Scattered Clouds,290,2013-03-20 19:15:00
2:35 PM,20.5,5.7,53,30.04,10.0,WNW,20.7,31.1,N/A,,Mostly Cloudy,290,2013-03-20 19:35:00
2:55 PM,21.0,7.3,56,30.03,10.0,WNW,23.0,31.1,N/A,,Overcast,290,2013-03-20 19:55:00
3:15 PM,21.6,7.5,55,30.02,10.0,West,19.6,27.6,N/A,,Mostly Cloudy,280,2013-03-20 20:15:00
3:35 PM,21.2,7.0,54,30.02,10.0,WNW,18.4,26.5,N/A,,Overcast,290,2013-03-20 20:35:00
3:55 PM,21.2,7.3,55,30.02,10.0,WNW,19.6,-,N/A,,Overcast,300,2013-03-20 20:55:00
4:15 PM,21.6,6.6,53,30.01,10.0,West,21.9,27.6,N/A,,Overcast,270,2013-03-20 21:15:00
4:35 PM,21.7,7.5,54,30.01,10.0,WNW,16.1,27.6,N/A,,Mostly Cloudy,300,2013-03-20 21:35:00
4:55 PM,21.9,7.9,55,30.01,10.0,West,21.9,26.5,N/A,,Mostly Cloudy,280,2013-03-20 21:55:00
5:15 PM,21.2,7.3,55,30.01,10.0,WNW,19.6,29.9,N/A,,Overcast,300,2013-03-20 22:15:00
5:35 PM,21.2,8.1,57,30.02,10.0,WNW,15.0,24.2,N/A,,Overcast,300,2013-03-20 22:35:00
5:55 PM,21.4,7.5,55,30.02,10.0,WNW,23.0,29.9,N/A,,Mostly Cloudy,290,2013-03-20 22:55:00
6:15 PM,20.1,7.2,57,30.03,10.0,WNW,21.9,28.8,N/A,,Mostly Cloudy,290,2013-03-20 23:15:00
6:35 PM,19.4,7.2,59,30.03,10.0,NW,16.1,21.9,N/A,,Overcast,310,2013-03-20 23:35:00
6:55 PM,19.0,6.8,59,30.03,10.0,WNW,15.0,24.2,N/A,,Overcast,300,2013-03-20 23:55:00
7:15 PM,18.7,6.3,58,30.03,10.0,WNW,16.1,23.0,N/A,,Overcast,300,2013-03-21 00:15:00
7:35 PM,18.1,5.9,59,30.03,10.0,NW,17.3,-,N/A,,Overcast,310,2013-03-21 00:35:00
7:55 PM,18.3,6.8,61,30.04,10.0,WNW,16.1,20.7,N/A,,Overcast,300,2013-03-21 00:55:00
8:15 PM,18.0,6.8,62,30.04,10.0,NW,11.5,-,N/A,,Overcast,310,2013-03-21 01:15:00
8:35 PM,17.6,6.8,63,30.04,10.0,WNW,12.7,-,N/A,,Mostly Cloudy,300,2013-03-21 01:35:00
8:55 PM,17.6,6.6,62,30.04,10.0,NW,15.0,18.4,N/A,,Overcast,310,2013-03-21 01:55:00
9:15 PM,16.9,6.8,65,30.04,10.0,NW,13.8,-,N/A,,Mostly Cloudy,310,2013-03-21 02:15:00
9:35 PM,16.7,6.8,65,30.04,10.0,WNW,15.0,20.7,N/A,,Scattered Clouds,300,2013-03-21 02:35:00
9:55 PM,16.7,6.8,65,30.04,10.0,NW,15.0,19.6,N/A,,Mostly Cloudy,310,2013-03-21 02:55:00
10:15 PM,16.5,7.0,66,30.04,10.0,NW,10.4,-,N/A,,Overcast,310,2013-03-21 03:15:00
10:35 PM,16.5,7.7,68,30.04,10.0,NW,13.8,19.6,N/A,,Overcast,310,2013-03-21 03:35:00
10:55 PM,16.2,8.6,72,30.04,10.0,WNW,10.4,-,N/A,,Overcast,300,2013-03-21 03:55:00
11:15 PM,15.8,8.4,73,30.04,10.0,WNW,10.4,-,N/A,,Overcast,300,2013-03-21 04:15:00
11:35 PM,15.3,8.1,73,30.04,10.0,WNW,11.5,-,N/A,,Overcast,300,2013-03-21 04:35:00
11:55 PM,14.9,8.2,75,30.04,10.0,WNW,10.4,-,N/A,,Scattered Clouds,300,2013-03-21 04:55:00